Location: �bnet
(46.9957°N, 8.4908°E)
Time: 15:32:40
(UTC+00:00)

Cosmos 858 Rocket - Visible Passes

Search period start: 24 September 2021 00:00
Search period end: 04 October 2021 00:00
Orbit: 756 x 774 km, 74.1° (Epoch: 23 September)

Date Brightness Start Highest point End Pass type
(mag) Time Alt. Az. Time Alt. Az. Time Alt. Az.
24 Sep 7.2 04:36:57 10° NNE 04:39:53 15° NE 04:42:48 10° E visible
24 Sep 6.9 21:06:41 15° NNE 21:06:41 15° NNE 21:07:31 10° NNE visible
24 Sep 7.4 22:46:52 11° NNW 22:46:52 11° NNW 22:47:40 10° NNW visible
25 Sep 6.9 20:29:05 13° NNE 20:29:05 13° NNE 20:29:36 10° NNE visible
25 Sep 7.2 22:09:15 15° NNW 22:09:15 15° NNW 22:10:41 10° N visible
26 Sep 6.9 19:51:24 11° NNE 19:51:24 11° NNE 19:51:30 10° NNE visible
26 Sep 6.9 21:31:33 18° N 21:31:33 18° N 21:33:15 10° N visible
27 Sep 7.1 04:24:34 10° N 04:28:27 21° NE 04:32:20 10° E visible
27 Sep 6.5 20:53:42 21° N 20:53:42 21° N 20:55:37 10° NNE visible
28 Sep 7.4 03:47:26 10° NNE 03:50:06 14° NE 03:52:44 10° ENE visible
28 Sep 6.1 20:15:35 26° NNE 20:15:35 26° NNE 20:17:49 10° NNE visible
28 Sep 7.2 21:55:42 14° NW 21:55:42 14° NW 21:58:12 10° NNW visible
29 Sep 5.8 04:50:03 10° NNW 04:55:04 45° ENE 05:00:04 10° SE visible
29 Sep 5.4 19:36:50 35° NE 19:36:50 35° NE 19:39:52 10° NNE visible
29 Sep 6.8 21:16:52 20° WNW 21:17:15 20° NW 21:21:05 10° N visible
30 Sep 6.6 04:12:24 10° N 04:16:56 29° NE 04:21:27 10° ESE visible
30 Sep 4.8 18:52:05 10° S 18:56:54 41° ESE 19:01:45 10° NE visible
30 Sep 6.1 20:34:25 10° WSW 20:39:00 31° WNW 20:43:37 10° N visible
01 Oct 7.2 03:34:58 10° N 03:38:41 19° NE 03:42:23 10° E visible
01 Oct 5.4 18:15:05 10° SSE 18:19:12 25° E 18:23:22 10° NE visible
01 Oct 5.3 19:55:53 10° SW 20:00:54 48° WNW 20:05:56 10° NNE visible
02 Oct 7.5 02:57:57 10° NNE 03:00:18 13° NE 03:02:38 10° ENE visible
02 Oct 5.0 04:38:08 10° NNW 04:43:22 67° ENE 04:48:35 10° SSE visible
02 Oct 6.0 17:38:51 10° SE 17:41:37 15° E 17:44:23 10° ENE visible
02 Oct 4.5 19:17:42 10° SSW 19:22:53 79° WNW 19:28:07 10° NNE visible
02 Oct 7.3 21:02:55 10° W 21:05:48 15° NW 21:08:42 10° NNW visible
03 Oct 5.9 04:00:23 10° N 04:05:19 41° ENE 04:10:16 10° SE visible
03 Oct 4.4 18:39:54 10° S 18:45:00 63° ESE 18:50:09 10° NNE visible
03 Oct 6.8 20:23:28 10° WSW 20:27:27 22° NW 20:31:29 10° N visible
